{"data":{"norad_id":53905,"intl_designator":"2022-119V","name":"STARLINK-5003","alt_names":[],"object_type":"PAYLOAD","status":"ACTIVE","operator":null,"country":"US","launch_date":"2022-09-24","launch_site_code":"AFETR","launch_vehicle":null,"mission":null,"orbit_class":"UNKNOWN","rcs_meters":null,"size_class":null,"mass_kg":null,"dimensions":null,"purposes":["comms"],"wikipedia_slug":null,"has_3d_model":false,"image_url":null,"decayed_at":null,"tle_current":{"epoch":"2026-09-19T06:08:19.316832Z","epoch_age_seconds":194533,"freshness":"STALE","line1":"1 53905U 22119V   26262.25577913  .00003403  00000+0  23178-3 0  9997","line2":"2 53905  53.1589 164.7341 0001438 104.5379 255.5771 15.08837347221043","mean_motion":15.08837347,"eccentricity":0.0001438,"inclination_deg":53.1589,"raan_deg":164.7341,"arg_perigee_deg":104.5379,"mean_anomaly_deg":255.5771,"bstar":0.00023178,"rev_number":22104,"period_min":95.437722486332,"perigee_km":538.75670576961,"apogee_km":540.74629050167,"semimajor_km":6917.8884981356,"source":"CELESTRAK","updated_at":"2026-09-21T09:00:33.031811Z"}}}